GEFSSE_500_meanwind_042.txt.gz
Wind_Speed
3 3 3 4 4 5 6 7 7 7 8 9 9 9 10 10 11 11 11 12 12 12 12 11 11 11 11 10 10 10 10 9 9 8 7 7 7 6 6 6 6 7 7
2 2 1 1 2 3 4 4 5 5 6 7 7 8 8 8 9 9 10 10 11 11 11 11 10 10 9 9 9 9 9 9 8 7 6 6 6 6 5 5 5 5 5
3 3 2 2 2 3 3 4 4 5 5 6 6 6 7 7 8 8 8 9 9 10 10 10 10 9 8 8 8 8 8 8 8 7 6 5 5 4 4 4 3 3 3
4 4 4 4 4 4 4 4 4 4 5 5 6 6 7 8 8 8 8 8 8 9 9 10 10 9 8 7 7 7 7 7 7 6 6 5 4 3 3 2 2 2 2
5 5 5 5 5 5 5 4 4 5 5 6 7 7 8 9 9 9 9 8 8 9 9 9 9 9 9 8 7 7 6 6 6 6 6 5 5 4 2 2 1 0 1
7 7 7 7 7 6 6 6 6 6 7 8 9 9 10 10 10 10 10 10 10 10 10 10 9 9 9 9 8 8 7 6 6 7 7 6 5 5 4 4 3 3 2
8 8 8 8 7 7 7 8 9 9 10 11 12 12 13 13 12 12 12 12 12 12 12 12 11 11 11 11 10 10 9 8 7 7 9 8 6 6 5 5 5 5 5
9 9 9 9 9 9 10 11 12 13 14 14 15 15 15 15 15 15 15 15 15 15 15 14 14 14 14 14 13 13 12 12 11 10 10 10 8 8 8 7 7 7 7
10 10 11 11 12 13 14 14 15 16 16 17 17 18 18 18 18 18 18 18 18 18 18 18 17 17 17 17 17 16 16 16 15 14 13 13 11 10 10 10 10 9 9
12 13 14 14 15 16 16 17 17 17 18 18 19 19 20 20 20 21 21 21 21 21 21 21 20 20 20 20 20 20 19 20 19 18 17 17 16 14 13 12 12 12 11
14 15 16 17 18 18 18 19 19 19 19 20 20 20 21 22 22 22 23 23 23 23 23 23 22 22 23 23 22 22 22 22 21 21 21 20 20 18 18 16 15 14 14
17 18 19 20 20 20 20 21 21 21 21 21 21 22 22 22 23 23 23 24 24 23 24 23 23 23 24 23 23 23 22 22 21 22 22 22 22 22 21 20 18 17 16
23 24 24 23 23 23 24 24 24 23 23 22 23 22 22 23 24 24 24 24 25 24 24 24 24 23 24 24 23 23 22 22 23 23 23 23 24 24 24 22 21 20 19
27 28 28 27 27 28 28 28 27 26 26 25 24 24 23 24 24 24 24 24 25 25 25 25 24 23 23 23 22 22 21 22 23 22 24 24 25 26 26 25 24 23 22
30 30 31 30 31 32 31 31 29 28 27 26 25 24 24 24 24 24 24 24 24 24 24 24 24 23 23 23 22 22 22 22 21 21 21 22 23 25 26 25 24 24 24
34 33 35 36 35 35 34 30 29 29 29 28 26 25 25 25 25 24 24 24 24 24 23 23 23 23 22 21 21 21 21 20 20 20 21 22 22 23 24 26 26 26 25
39 39 40 41 39 36 36 32 30 29 29 28 26 25 25 25 25 25 24 23 23 23 22 22 21 21 20 19 18 18 18 18 18 19 19 20 21 22 23 25 27 27 27
42 45 44 44 41 38 37 35 28 28 28 27 26 24 24 24 25 24 23 23 22 22 22 21 20 19 18 16 15 15 15 16 16 16 17 18 19 20 22 24 26 27 28
43 44 45 45 41 38 36 32 28 28 27 25 23 21 22 23 23 23 23 23 23 22 21 20 19 18 17 15 14 14 13 14 15 16 16 17 18 20 21 23 25 27 28
45 46 47 45 42 40 38 29 27 26 24 23 22 23 23 22 22 22 22 23 22 22 21 19 18 18 17 16 15 14 14 14 15 16 17 18 19 20 21 23 25 26 28
46 47 45 45 41 37 34 27 22 22 22 21 21 22 22 23 23 23 23 23 23 22 21 20 19 19 18 17 16 16 16 15 15 16 17 18 20 21 22 22 24 26 28
44 44 43 42 39 35 33 25 21 21 21 21 21 21 23 24 25 25 25 24 23 23 22 21 21 21 20 19 18 18 18 18 17 18 18 20 21 22 23 24 25 26 28
42 41 41 39 37 35 31 27 25 24 22 21 21 21 22 24 25 26 25 25 25 25 24 23 23 23 23 22 21 20 20 19 20 21 21 21 22 23 23 24 25 26 28
40 40 39 37 36 34 32 29 27 27 25 23 23 23 23 24 24 25 26 26 26 26 26 26 25 25 25 25 24 23 22 21 21 22 24 24 23 24 24 25 26 26 28
38 39 39 37 36 35 33 32 31 29 28 27 27 26 25 25 24 25 26 26 26 28 28 28 28 27 27 27 26 25 25 24 23 22 23 26 26 26 25 25 25 26 27
40 42 41 40 38 37 37 35 34 33 33 32 32 32 31 30 29 29 28 28 29 30 31 31 31 30 29 29 28 28 27 27 26 25 24 25 27 28 27 26 25 25 26

GEFSSE_500_meanwind_048.txt.gz
Wind_Speed
6 5 4 4 5 4 3 3 3 4 5 5 6 6 6 7 7 8 8 9 10 10 9 9 8 8 7 7 7 7 7 7 7 7 7 7 7 7 7 7 7 7 7
7 7 7 7 7 7 6 5 4 3 2 3 3 3 4 5 5 6 6 7 7 8 8 8 8 7 6 6 6 6 6 6 6 5 5 5 5 5 5 5 6 7 7
8 8 8 9 9 9 8 7 6 5 4 3 3 3 3 4 4 5 5 6 6 7 7 7 7 7 6 5 4 4 4 4 4 4 4 3 3 3 4 5 5 6 6
9 9 10 11 11 10 10 9 8 7 6 5 5 5 5 5 6 6 6 6 6 6 6 7 6 6 6 5 4 3 3 3 2 2 2 2 2 2 3 4 5 5 5
10 11 12 13 12 12 11 10 9 9 8 7 7 7 8 8 8 8 8 8 8 8 8 7 7 6 5 5 4 4 3 2 1 1 1 1 1 2 3 4 5 5 5
11 12 13 13 13 12 11 11 11 10 10 10 10 11 11 11 11 11 11 11 10 10 10 10 9 8 7 7 6 5 5 4 3 2 2 3 3 3 4 5 5 5 5
12 13 13 13 13 12 12 12 12 13 13 13 13 14 14 15 15 14 14 14 13 13 13 13 12 11 11 10 9 9 8 8 7 6 5 5 5 5 5 6 6 6 6
13 14 14 14 14 14 14 15 15 15 15 16 16 16 17 17 17 17 17 17 16 16 16 16 16 15 14 14 13 12 12 12 11 11 10 8 8 7 7 7 8 8 8
14 15 16 17 16 17 17 18 18 19 18 19 19 19 19 20 20 20 20 20 19 19 19 19 19 19 18 17 17 16 15 15 15 15 14 13 12 11 10 10 10 10 10
16 17 18 19 20 21 21 22 22 22 22 22 22 22 22 22 22 22 22 22 22 22 22 22 22 21 21 20 20 20 18 18 17 18 18 17 16 15 14 13 13 13 12
17 19 20 23 24 25 26 27 27 27 27 26 26 25 24 24 24 23 23 23 23 23 23 23 23 23 22 22 22 21 20 20 19 19 19 19 18 18 18 18 17 16 16
19 21 23 24 27 28 30 31 31 31 31 31 30 29 28 27 25 25 25 25 24 24 23 23 23 23 23 23 22 22 22 21 20 20 20 20 20 19 20 20 20 20 20
23 24 25 27 29 30 31 32 32 32 33 34 34 33 32 30 28 27 27 25 25 24 24 24 24 23 23 23 23 23 23 22 21 20 20 19 20 20 20 21 22 22 23
26 27 28 30 31 33 33 34 34 34 35 35 36 34 35 33 31 29 28 26 25 24 24 25 25 24 24 24 24 22 22 21 21 20 20 20 19 20 20 20 21 23 23
28 29 31 31 33 34 35 36 35 36 37 36 37 36 35 34 32 31 30 28 27 26 25 26 25 25 25 25 24 23 23 22 22 22 21 20 20 20 19 19 19 21 22
30 31 32 33 35 36 36 36 36 37 37 37 36 37 36 36 34 33 31 29 28 27 26 26 25 25 25 24 24 23 23 22 22 22 21 21 21 20 20 19 20 21 22
31 32 35 36 37 37 36 37 36 35 35 37 36 36 36 35 35 34 33 29 28 27 26 25 24 25 24 24 23 23 22 22 21 21 20 20 19 19 18 18 18 19 20
33 34 37 38 38 36 35 36 36 35 34 35 34 33 34 34 33 32 30 27 26 25 25 24 24 24 23 23 23 22 21 21 20 19 18 17 17 17 16 16 17 17 19
36 37 38 39 39 38 37 38 36 36 36 33 30 30 30 29 30 29 29 25 23 23 23 23 23 23 23 23 22 22 21 20 19 18 17 16 15 15 15 15 15 16 17
38 39 40 39 40 40 39 39 38 36 34 30 27 26 26 26 26 25 26 24 22 21 22 22 23 23 23 23 22 22 21 21 20 18 17 15 14 14 14 14 14 15 16
42 42 43 42 41 40 40 38 35 33 32 28 25 22 20 21 22 22 23 23 22 21 21 22 23 23 23 23 23 23 22 22 21 20 18 16 15 14 14 15 15 15 16
44 44 45 45 43 41 39 38 35 34 31 27 23 21 20 19 20 21 22 23 22 23 23 23 24 24 24 25 25 24 24 23 23 21 20 18 17 16 16 16 16 17 17
44 44 45 45 44 42 40 37 35 34 33 29 26 24 23 23 22 22 22 23 23 24 24 25 26 26 27 27 27 27 26 25 25 24 22 21 20 18 17 17 17 18 19
41 42 43 43 42 40 38 37 37 36 34 33 30 28 27 26 26 25 25 25 25 26 26 27 27 28 29 29 29 29 29 27 27 26 25 23 22 21 19 19 19 20 20
36 38 39 40 40 40 39 39 39 39 38 36 35 34 32 30 30 29 29 29 29 29 29 29 30 31 31 32 32 32 31 30 29 29 28 26 25 23 22 22 21 21 21
37 39 40 41 42 43 43 44 44 43 42 42 41 40 39 37 36 35 35 35 34 34 33 33 33 33 34 35 35 35 34 33 32 31 30 29 28 27 25 24 23 23 23

GEFSSE_500_meanwind_054.txt.gz
Wind_Speed
3 4 3 4 4 5 6 7 8 8 8 7 6 4 3 3 3 3 4 5 6 6 6 5 4 4 3 3 3 3 4 4 4 4 4 4 3 4 4 5 5 4 4
5 5 5 5 6 7 8 9 10 10 10 9 8 7 5 4 3 3 3 3 4 4 4 4 4 3 2 2 2 2 2 2 2 2 2 2 2 2 3 4 4 4 4
6 6 7 7 7 8 9 10 11 11 11 11 10 9 8 6 6 5 5 4 3 3 3 3 3 2 1 1 1 1 1 1 1 1 1 1 1 1 1 2 3 4 4
6 6 7 7 7 9 10 11 12 12 12 12 12 11 10 9 9 8 7 7 6 5 4 3 3 2 2 1 1 1 1 1 1 2 1 1 1 2 2 2 3 3 4
6 6 6 7 8 9 10 11 12 13 13 13 13 13 13 12 11 11 10 10 9 8 7 6 5 5 4 4 3 2 2 3 3 3 3 3 3 3 3 4 4 5 5
6 6 6 7 8 9 10 11 12 13 14 14 15 15 15 15 14 14 13 13 12 12 11 10 9 8 8 7 6 5 5 4 4 4 4 4 5 5 5 6 6 6 7
7 7 8 9 9 10 11 12 13 14 15 16 16 16 17 17 17 17 17 16 16 15 14 14 13 12 11 10 10 9 9 8 7 7 7 7 6 7 7 8 8 9 9
8 9 9 10 11 12 13 14 15 16 17 18 18 19 19 20 20 20 20 20 20 19 18 18 16 15 14 14 13 13 13 12 11 11 10 10 10 9 9 10 10 11 11
10 10 11 13 14 15 16 17 18 19 20 20 21 22 22 23 23 23 23 23 23 23 22 21 20 19 18 18 17 16 16 15 15 14 14 13 13 12 12 12 13 13 13
13 14 14 16 16 17 18 20 21 22 23 23 24 24 25 25 26 26 26 26 26 26 25 24 23 22 22 21 20 20 19 19 19 18 17 16 16 15 15 15 15 15 15
15 17 17 19 19 20 22 23 23 24 24 25 26 27 27 28 29 30 30 29 29 29 28 27 26 25 24 24 23 22 21 21 20 19 19 19 19 18 18 17 18 18 18
18 20 20 21 22 24 24 25 25 25 26 27 28 29 30 30 31 32 33 33 32 31 30 29 29 27 26 26 25 24 23 23 22 21 21 20 20 20 19 19 19 19 20
21 23 24 25 25 26 27 27 27 28 29 29 30 31 31 31 32 34 34 34 35 34 33 32 31 29 28 27 26 25 24 23 23 22 22 21 20 20 20 20 19 20 21
24 26 27 28 29 29 30 28 28 29 30 31 31 32 32 32 33 35 35 36 37 36 36 35 33 31 30 29 28 26 26 25 24 23 22 22 21 20 20 20 19 19 20
27 28 29 31 31 31 32 30 31 31 31 31 31 33 33 34 35 36 37 38 38 38 38 36 35 33 32 31 29 28 27 26 26 24 23 23 22 21 21 21 20 19 19
30 31 32 33 34 34 33 33 33 33 33 33 33 34 34 34 35 36 37 38 39 39 40 38 37 35 34 33 31 30 29 28 27 26 25 24 23 23 22 21 21 21 20
33 33 33 35 37 36 35 36 36 36 36 36 36 35 33 33 34 34 35 37 38 40 41 40 38 36 35 34 33 31 30 28 27 26 26 24 23 23 22 21 21 21 21
34 35 36 38 39 38 38 39 39 40 38 37 36 34 32 32 31 32 34 35 37 38 39 39 38 37 35 34 33 32 30 29 27 27 26 25 24 23 22 21 20 20 19
35 37 38 40 40 41 41 42 43 41 40 38 35 33 32 32 31 31 31 32 35 38 39 39 38 37 35 34 34 32 30 29 28 27 26 25 24 22 21 20 19 18 17
36 38 40 42 42 43 43 44 43 41 40 38 34 32 31 31 31 30 29 30 33 36 36 37 38 36 34 33 33 32 31 29 28 27 26 25 23 22 20 19 19 17 16
37 39 41 42 43 43 43 42 41 41 40 37 34 34 33 31 30 28 29 29 30 31 34 36 36 34 34 33 33 32 31 30 29 28 27 25 23 22 20 19 19 17 16
38 40 40 41 42 43 43 42 41 41 40 37 37 36 34 32 30 29 28 28 28 28 31 34 35 35 34 34 33 33 32 30 30 29 28 26 25 23 21 20 19 17 16
36 37 37 38 39 40 40 39 40 40 39 38 37 36 34 34 32 30 29 28 27 29 30 33 34 35 34 33 33 33 32 32 31 30 29 28 26 25 24 22 20 19 17
35 36 37 37 38 38 39 40 41 41 41 40 39 39 38 37 36 33 32 31 30 29 31 33 34 34 33 33 33 33 33 33 33 32 31 30 29 27 26 24 23 21 19
36 37 37 38 39 40 40 41 42 43 43 43 43 43 42 41 39 38 37 35 34 33 32 32 33 34 34 35 34 35 34 35 35 34 34 32 31 30 29 27 25 23 21
37 38 40 40 41 42 43 44 45 46 46 47 47 47 46 45 44 43 43 41 40 39 37 36 35 36 37 37 37 37 37 37 37 37 36 35 34 33 32 30 28 26 24

GEFSSE_500_meanwind_060.txt.gz
Wind_Speed
8 7 7 7 7 7 8 8 10 11 11 12 12 12 12 11 11 11 11 10 10 9 9 9 8 7 7 6 6 6 5 5 5 5 5 6 6 6 6 5 6 6 6
9 8 8 7 8 8 8 8 8 9 10 11 11 11 12 11 11 11 11 11 10 10 9 9 8 8 7 6 6 5 5 5 4 4 4 4 5 5 5 5 4 5 5
9 9 8 8 8 8 8 8 8 9 9 10 11 11 11 11 11 11 11 11 11 10 10 9 8 8 7 6 6 6 5 5 4 4 3 3 3 3 3 3 3 4 4
9 9 8 8 8 8 7 8 8 9 10 11 11 12 12 12 12 12 11 11 11 11 10 10 9 8 8 7 6 6 6 5 5 4 3 2 2 2 2 2 2 2 3
10 9 9 9 9 8 8 9 9 10 11 12 12 12 13 13 13 13 13 12 12 12 12 11 11 10 9 9 8 8 7 7 6 5 4 3 2 2 1 0 0 1 1
11 10 9 9 9 10 10 10 11 12 13 14 14 14 14 14 14 14 15 14 14 14 14 13 12 12 12 11 10 10 10 9 8 7 5 5 3 3 2 2 1 1 1
12 11 11 10 10 11 12 12 13 14 15 16 16 17 17 17 17 17 17 17 17 17 16 16 15 14 14 14 13 13 12 12 11 9 8 7 6 5 4 4 3 3 3
14 13 12 12 12 12 13 14 15 16 17 18 19 19 19 20 20 20 20 20 20 20 19 19 18 17 17 17 17 16 16 15 14 13 11 10 10 8 7 6 6 5 5
16 15 15 15 15 15 16 16 17 18 19 20 21 21 22 22 23 24 24 23 23 22 22 21 21 20 20 20 20 19 19 19 18 16 15 14 13 12 11 9 8 8 8
17 17 17 17 17 18 18 19 19 20 21 22 23 23 24 24 25 25 26 26 26 25 25 24 24 23 23 23 23 23 22 22 22 20 18 17 16 15 14 13 12 11 11
19 19 19 19 19 20 20 21 22 23 23 24 25 26 26 26 26 27 28 29 29 29 28 27 27 26 26 25 26 26 25 25 25 23 21 20 20 18 18 17 15 15 14
21 22 21 21 21 22 22 23 24 25 26 26 26 27 27 27 28 29 29 30 31 32 31 31 30 29 29 28 28 28 27 28 27 27 25 23 23 21 20 19 18 18 17
23 24 23 23 24 26 26 26 27 28 28 28 28 28 29 30 30 31 31 31 31 33 33 33 32 31 31 30 30 29 30 30 29 29 27 25 25 23 21 21 20 20 19
25 26 27 27 27 28 29 29 30 31 31 31 31 31 32 32 32 33 34 34 33 34 35 35 34 34 34 33 33 32 32 32 31 30 30 28 27 25 23 22 21 20 19
28 29 30 31 31 32 33 34 34 34 35 34 34 34 34 35 35 35 36 36 36 36 35 35 36 35 36 35 34 33 34 33 32 32 31 30 28 26 25 24 22 21 20
31 32 34 35 34 35 36 37 38 38 38 39 39 37 37 37 38 38 38 38 37 37 37 37 36 36 35 35 34 33 33 33 32 32 31 30 28 27 26 25 23 22 21
33 34 35 36 36 37 38 40 40 41 42 42 42 41 40 40 40 40 40 39 38 37 37 37 37 36 35 35 35 34 33 32 32 31 31 30 28 28 28 26 24 23 22
34 34 35 37 37 38 40 42 42 43 43 44 43 43 41 41 41 41 40 39 38 37 35 35 37 36 34 34 33 33 33 31 32 31 31 31 29 28 27 26 26 25 23
33 34 35 36 37 39 41 43 44 44 45 45 46 44 43 42 41 41 40 38 37 36 34 34 34 35 34 33 32 32 31 31 32 32 31 30 28 27 27 26 26 25 24
31 33 35 37 38 40 42 43 44 45 45 46 46 46 44 43 42 41 39 38 37 35 34 34 34 34 34 33 34 32 32 33 33 32 31 30 28 27 27 26 26 25 23
31 33 35 37 39 41 42 44 44 44 46 46 46 45 43 42 41 40 40 39 36 35 35 34 33 33 33 33 32 32 32 31 31 32 31 30 29 28 28 27 27 25 23
30 33 35 36 39 41 42 43 44 44 44 45 45 44 43 42 41 41 41 39 37 37 37 35 34 33 32 31 30 30 31 32 31 30 31 30 29 29 29 28 26 25 24
30 31 34 36 38 39 41 42 43 43 44 45 45 44 42 42 42 42 41 40 39 38 37 35 34 33 30 30 31 31 32 34 32 30 30 30 30 30 29 28 26 25 25
30 32 34 35 37 39 40 42 43 44 45 45 46 46 45 44 43 43 43 42 41 40 38 37 36 34 32 33 33 33 32 32 31 30 31 30 30 31 30 29 28 26 26
31 33 35 36 37 39 41 42 44 45 45 46 46 46 46 45 44 44 43 43 42 42 40 40 39 37 36 35 34 33 34 34 33 33 31 30 30 31 31 31 30 28 27
32 35 36 38 38 40 41 43 44 45 45 46 46 46 46 46 46 46 45 44 43 43 42 42 41 40 39 38 37 36 35 35 35 35 34 32 32 32 32 32 32 30 29